This is the latest recevied weather packets stored in our database for station/object KE8KMM. If no packets are shown the sender has not sent any weather packets the latest 10 day(s).
| Time | Temp. | Humidity | Pressure | Rain* | Wind** | Luminosity | Snow |
|---|---|---|---|---|---|---|---|
| 1778008954 | 21.11° C | 63% | 1006.6 hPa | 0 mm | - | 140 W/m² | - |
| 1778008652 | 21.11° C | 65% | 1006.5 hPa | 0 mm | - | 124 W/m² | - |
| 1778008350 | 21.11° C | 65% | 1006.3 hPa | 0 mm | - | 91 W/m² | - |
| 1778008046 | 21.11° C | 63% | 1006.6 hPa | 0 mm | - | 91 W/m² | - |
| 1778007746 | 21.11° C | 64% | 1006.5 hPa | 0 mm | - | 66 W/m² | - |
| 1778007442 | 21.11° C | 64% | 1006.7 hPa | 0 mm | - | 60 W/m² | - |
| 1778007139 | 21.67° C | 64% | 1006.7 hPa | 0 mm | - | 50 W/m² | - |
| 1778006835 | 21.67° C | 64% | 1006.8 hPa | 0 mm | - | 52 W/m² | - |
| 1778006533 | 21.67° C | 64% | 1006.8 hPa | 0 mm | - | 45 W/m² | - |
| 1778006229 | 21.67° C | 64% | 1006.7 hPa | 0 mm | - | 54 W/m² | - |
| 1778005927 | 22.22° C | 62% | 1006.7 hPa | 0 mm | - | 132 W/m² | - |
| 1778005623 | 22.78° C | 61% | 1006.8 hPa | 0 mm | - | 184 W/m² | - |
| 1778005320 | 22.78° C | 61% | 1006.8 hPa | 0 mm | - | 323 W/m² | - |
| 1778005016 | 22.78° C | 60% | 1006.7 hPa | 0 mm | - | 356 W/m² | - |
| 1778004714 | 22.78° C | 59% | 1006.7 hPa | 0 mm | - | 337 W/m² | - |
| 1778004410 | 22.78° C | 61% | 1006.6 hPa | 0 mm | - | 380 W/m² | - |
| 1778004108 | 22.78° C | 61% | 1006.9 hPa | 0 mm | - | 309 W/m² | - |
| 1778003803 | 22.22° C | 61% | 1006.7 hPa | 0 mm | - | 274 W/m² | - |
| 1778003500 | 22.78° C | 60% | 1006.8 hPa | 0 mm | - | 209 W/m² | - |
| 1778003197 | 22.78° C | 60% | 1006.7 hPa | 0 mm | - | 235 W/m² | - |
| 1778002893 | 22.78° C | 58% | 1006.7 hPa | 0 mm | - | 269 W/m² | - |
| 1778002590 | 22.78° C | 60% | 1006.8 hPa | 0 mm | - | 310 W/m² | - |
| 1778002286 | 23.33° C | 57% | 1006.6 hPa | 0 mm | - | 318 W/m² | - |
| 1778001984 | 23.33° C | 56% | 1006.5 hPa | 0 mm | - | 437 W/m² | - |
| 1778001681 | 23.89° C | 57% | 1006.7 hPa | 0 mm | - | 565 W/m² | - |
* Rain latest hour (hover to see other rain measurements)
** Current wind speed in m/s (hover to see current wind gust speed)